Overview Statistics Trail Chart Weather Telemetry Raw packets
 

This is the latest recevied weather packets stored in our database for station/object N8TWM-13. If no packets are shown the sender has not sent any weather packets the latest 10 day(s).

<< 12 13 14 15 16 17 18 >>
Time Temp. Humidity Pressure Rain* Wind** Luminosity Snow
1788525171 21.67° C 92% 1017.7 hPa 0 mm - 36 W/m² -
1788524866 21.67° C 93% 1017.7 hPa 0 mm - 33 W/m² -
1788524565 21.67° C 93% 1017.7 hPa 0 mm - 35 W/m² -
1788524261 21.67° C 93% 1017.7 hPa 0 mm - 47 W/m² -
1788523957 21.11° C 93% 1017.6 hPa 0 mm - 54 W/m² -
1788523653 21.11° C 94% 1017.5 hPa 0 mm - 55 W/m² -
1788523349 21.11° C 94% 1017.2 hPa 0 mm - 50 W/m² -
1788523044 20.56° C 94% 1017.2 hPa 0 mm - 37 W/m² -
1788522744 20.56° C 94% 1017.1 hPa 0 mm - 21 W/m² -
1788522439 20.56° C 94% 1016.9 hPa 0 mm - 27 W/m² -
1788522142 20.56° C 94% 1016.8 hPa 0 mm - 22 W/m² -
1788521828 20.56° C 94% 1016.9 hPa 0 mm - 20 W/m² -
1788521527 20.56° C 94% 1017 hPa 0 mm - 18 W/m² -
1788521223 20.56° C 94% 1016.6 hPa 0 mm - 13 W/m² -
1788520918 20.56° C 94% 1016.5 hPa 0 mm - 8 W/m² -
1788520614 20.56° C 94% 1016.6 hPa 0 mm - 6 W/m² -
1788520309 20.56° C 94% 1016.6 hPa 0 mm - 4 W/m² -
1788520005 20.56° C 94% 1016.3 hPa 0 mm - 2 W/m² -
1788519703 20.56° C 94% 1016.3 hPa 0 mm - 1 W/m² -
1788519408 20.56° C 94% 1016.3 hPa 0 mm - 0 W/m² -
1788519093 20.56° C 94% 1016.1 hPa 0 mm - 0 W/m² -
1788518789 20.56° C 94% 1015.9 hPa 0 mm - 0 W/m² -
1788518484 20° C 94% 1016 hPa 0 mm - 0 W/m² -
1788518180 20° C 94% 1016.1 hPa 0 mm - 0 W/m² -
1788517876 20° C 94% 1015.8 hPa 0 mm - 0 W/m² -

* Rain latest hour (hover to see other rain measurements)
** Current wind speed in m/s (hover to see current wind gust speed)